Overview Statistics Trail Chart Weather Telemetry Raw packets
 

This is the latest recevied weather packets stored in our database for station/object DC9VQ-13. If no packets are shown the sender has not sent any weather packets the latest 10 day(s).

<< 48 49 50 51 52 53 54 >>
Time Temp. Humidity Pressure Rain* Wind** Luminosity Snow
1787883292 21.11° C 90% 1010.4 hPa 0 mm - - -
1787882690 21.11° C 90% 1010.5 hPa 0 mm - - -
1787882088 21.11° C 90% 1010.5 hPa 0 mm - - -
1787881487 21.11° C 90% 1010.6 hPa 0.25 mm - - -
1787880884 21.11° C 89% 1010.3 hPa 0.51 mm - - -
1787880283 21.67° C 88% 1010.4 hPa 1.02 mm - - -
1787879680 21.67° C 88% 1010.6 hPa 1.52 mm - - -
1787879078 21.67° C 87% 1010.3 hPa 4.06 mm - - -
1787878476 21.67° C 87% 1010.9 hPa 7.62 mm - - -
1787877874 21.67° C 87% 1011 hPa 7.87 mm - - -
1787877272 22.22° C 86% 1012 hPa 7.62 mm - - -
1787876670 22.22° C 86% 1012.2 hPa 7.11 mm - - -
1787876068 22.78° C 85% 1012.4 hPa 6.35 mm - - -
1787875465 23.33° C 81% 1012.6 hPa 4.06 mm - - -
1787874865 25° C 69% 1011.1 hPa 0.51 mm - - -
1787874262 25° C 68% 1009 hPa 0 mm - - -
1787873660 25° C 66% 1008.7 hPa 0 mm - - -
1787873058 25.56° C 66% 1008.8 hPa 0 mm - - -
1787872456 25.56° C 65% 1009 hPa 0 mm - - -
1787871853 25.56° C 65% 1009.2 hPa 0 mm - - -
1787871252 25.56° C 65% 1009.3 hPa 0 mm - - -
1787870649 25.56° C 64% 1009.2 hPa 0 mm - - -
1787870048 26.11° C 64% 1009.2 hPa 0 mm - - -
1787869447 26.11° C 63% 1009.4 hPa 0 mm - - -
1787868844 26.11° C 63% 1009.4 hPa 0 mm - - -

* Rain latest hour (hover to see other rain measurements)
** Current wind speed in m/s (hover to see current wind gust speed)